Flag for Burkina Faso Weather past 2 weeks in Koudougou, Burkina Faso

Now
93 °F

Clear.


Feels Like: 95 °F
Forecast: N/A
Wind: 12 mph from Southwest

Location: Ouagadougou Airport

Current Time: May 27, 2015 at 11:08:48 PM

Latest Report: May 27, 2015 at 10:00 PM


Visibility: 10 mi

Pressure: 29.86 "Hg

Humidity: 39%

Dew point: 64 °F

Location of KoudougouLocation

Historic Weather in Koudougou — Graph

°F

Koudougou temperature yesterday

Maximum temperature yesterday: 108 °F (at 2:00 PM)
Minimum temperature yesterday: 86 °F (at 6:00 AM)
Average temperature yesterday: 96 °F

Past Weeks' High & Low Weather Summary

 TemperatureHumidityPressure
High108 °F (May 26, 2:00 PM)83% (May 19, 12:00 AM)29.98 "Hg (May 19, 12:00 AM)
Low77 °F (May 19, 12:00 AM)11% (May 26, 5:00 PM)29.74 "Hg (May 14, 4:00 PM)
Average94 °F44%29.87 "Hg
* Reported May 12 10:00 PM — May 27 10:00 PM, Koudougou, Weather by CustomWeather, © 2015

Note: Actual official high and low records may vary slightly from our data, if they occured in-between our weather recording intervals... More about our weather records

Advertising

Koudougou weather history for previous 24 hours

 ConditionsComfort  
Time TempWeatherWind HumidityBarometerVisibility
10:00 PM
Wed, May 27
93 °FClear.12 mph39%29.86 "Hg10 mi
9:00 PM95 °FClear.9 mph39%29.83 "Hg10 mi
8:00 PM97 °FClear.5 mph37%29.83 "Hg10 mi
7:00 PM99 °FClear.2 mph31%29.80 "Hg5 mi
6:00 PM102 °FClear.6 mph27%29.77 "Hg5 mi
5:00 PM104 °FPartly sunny.1 mph24%29.77 "Hg5 mi
4:00 PM102 °FPartly sunny.3 mph29%29.77 "HgN/A
3:00 PM104 °FPartly sunny.6 mph28%29.80 "HgN/A
2:00 PM102 °FScattered clouds.5 mph40%29.83 "HgN/A
1:00 PM102 °FPartly sunny.6 mph33%29.83 "HgN/A
12:00 PM99 °FPartly sunny.7 mph42%29.86 "HgN/A
11:00 AM97 °FPartly sunny.9 mph44%29.89 "HgN/A
10:00 AM95 °FPartly sunny.13 mph50%29.92 "HgN/A
9:00 AM91 °FPassing clouds.14 mph56%29.92 "HgN/A
8:00 AM90 °FSunny.12 mph59%29.89 "Hg10 mi
7:00 AM88 °FPassing clouds.10 mph66%29.89 "HgN/A
6:00 AM86 °FSunny.8 mph70%29.89 "Hg10 mi
5:00 AM86 °FClear.10 mph70%29.86 "Hg10 mi
4:00 AM86 °FClear.12 mph70%29.86 "Hg10 mi
3:00 AM88 °FClear.13 mph66%29.83 "Hg10 mi
2:00 AM90 °FClear.14 mph59%29.83 "Hg10 mi
12:00 AM91 °FClear.10 mph46%29.83 "Hg10 mi
11:00 PM
Tue, May 26
93 °FClear.9 mph30%29.83 "Hg10 mi
Weather by CustomWeather, © 2015

See weather overviewHow to use our weather pages